Blacksburg, VA

4:31 AM EST on December 14, 2017 (GMT -0500)
Virginia Tech

Weather History for KBCB - January, 2014

Change the Weather History Date:

Sunday, January 19, 2014

  Actual Average Record
Temperature  
Mean Temperature 30 °F 31 °F  
Max Temperature 40 °F 42 °F 64 °F (1990)
Min Temperature 19 °F 21 °F -11 °F (1994)
Degree Days  
Heating Degree Days 35 34  
Month to date heating degree days 671 646  
Since 1 July heating degree days 2766 2793  
Cooling Degree Days 0 0  
Month to date cooling degree days 0 0  
Year to date cooling degree days 0 0  
Moisture  
Dew Point 24 °F    
Average Humidity 74    
Maximum Humidity 88    
Minimum Humidity 59    
Precipitation  
Precipitation 0.00 in 0.09 in 1.12 in (1987)
Month to date precipitation 1.39 1.90  
Year to date precipitation 1.39 1.90  
Snow  
Snow 0.00 in - - ()
Month to date snowfall 0.6  
Since 1 July snowfall 0.7  
Snow Depth 0.00 in    
Sea Level Pressure  
Sea Level Pressure 29.87 in    
Wind  
Wind Speed 6 mph (WSW)    
Max Wind Speed 12 mph    
Max Gust Speed 20 mph    
Visibility 10 miles    
Events      
T = Trace of Precipitation, MM = Missing Value Source: NWS Daily Summary

Daily Weather History Graph

Daily Weather History Graph

Search for Another Location

Airport or City:

Trip Planner

Search our weather history database for the weather conditions in past years. The results will help you decide how hot, cold, wet, or windy it might be!

Date:

Astronomy

Jan. 19, 2014 Rise Set
Actual Time 7:32 AM EST 5:32 PM EST
Civil Twilight 7:04 AM EST 6:00 PM EST
Nautical Twilight 6:32 AM EST 6:32 PM EST
Astronomical Twilight 6:01 AM EST 7:03 PM EST
Moon 9:03 PM EST (1/19) 9:07 AM EST (1/19)
Length of Visible Light 10h 55m
Length of Day
9h 59m
Waning Gibbous, 89% of the Moon is Illuminated
Jan 19
Waning Gibbous
Jan 24
Last Quarter
Jan 30
New
Feb 6
First Quarter
Feb 14
Full

Hourly Weather History & Observations

Time (EST) Temp. Windchill Dew Point Humidity Pressure Visibility Wind Dir Wind Speed Gust Speed Precip Events Conditions
12:15 AM 24.8 °F - 17.6 °F 74% 29.88 in 10.0 mi Calm Calm - N/A   Mostly Cloudy
12:35 AM 24.8 °F - 17.6 °F 74% 29.87 in 10.0 mi Calm Calm - N/A   Overcast
12:55 AM 24.8 °F - 19.4 °F 80% 29.86 in 10.0 mi Calm Calm - N/A   Overcast
1:15 AM 24.8 °F - 19.4 °F 80% 29.85 in 10.0 mi Calm Calm - N/A   Overcast
1:35 AM 24.8 °F - 19.4 °F 80% 29.84 in 10.0 mi Calm Calm - N/A   Overcast
1:55 AM 24.8 °F - 19.4 °F 80% 29.85 in 10.0 mi Calm Calm - N/A   Mostly Cloudy
2:15 AM 24.8 °F - 19.4 °F 80% 29.84 in 10.0 mi Calm Calm - N/A   Overcast
2:35 AM 24.8 °F - 19.4 °F 80% 29.84 in 10.0 mi Calm Calm - N/A   Overcast
2:55 AM 24.8 °F - 17.6 °F 74% 29.83 in 10.0 mi Calm Calm - N/A   Mostly Cloudy
3:15 AM 24.8 °F - 17.6 °F 74% 29.84 in 10.0 mi Calm Calm - N/A   Clear
3:35 AM 23.0 °F - 17.6 °F 80% 29.84 in 10.0 mi Calm Calm - N/A   Clear
3:55 AM 21.2 °F - 17.6 °F 86% 29.84 in 10.0 mi Calm Calm - N/A   Clear
4:15 AM 19.4 °F - 17.6 °F 93% 29.83 in 10.0 mi Calm Calm - N/A   Clear
4:35 AM 21.2 °F - 17.6 °F 86% 29.83 in 10.0 mi Calm Calm - N/A   Mostly Cloudy
4:55 AM 23.0 °F - 19.4 °F 86% 29.83 in 10.0 mi Calm Calm - N/A   Overcast
5:15 AM 24.8 °F - 21.2 °F 86% 29.83 in 10.0 mi Calm Calm - N/A   Overcast
5:35 AM 24.8 °F - 19.4 °F 80% 29.83 in 10.0 mi Calm Calm - N/A   Overcast
5:55 AM 24.8 °F - 19.4 °F 80% 29.83 in 10.0 mi Calm Calm - N/A   Overcast
6:15 AM 24.8 °F - 19.4 °F 80% 29.83 in 10.0 mi Calm Calm - N/A   Overcast
6:35 AM 23.0 °F - 17.6 °F 80% 29.83 in 10.0 mi Calm Calm - N/A   Scattered Clouds
6:55 AM 24.8 °F 20.5 °F 19.4 °F 80% 29.83 in 10.0 mi WSW 3.5 mph - N/A   Overcast
7:15 AM 26.6 °F 21.2 °F 19.4 °F 74% 29.84 in 10.0 mi West 4.6 mph - N/A   Overcast
7:35 AM 28.4 °F 22.2 °F 21.2 °F 74% 29.83 in 10.0 mi WSW 5.8 mph - N/A   Scattered Clouds
7:55 AM 28.4 °F - 21.2 °F 74% 29.84 in 10.0 mi Calm Calm - N/A   Clear
8:15 AM 28.4 °F 22.2 °F 24.8 °F 86% 29.85 in 10.0 mi WSW 5.8 mph - N/A   Scattered Clouds
8:35 AM 30.2 °F 25.4 °F 26.6 °F 86% 29.86 in 10.0 mi WSW 4.6 mph - N/A   Scattered Clouds
8:55 AM 32.0 °F 28.7 °F 26.6 °F 80% 29.87 in 10.0 mi WSW 3.5 mph - N/A   Mostly Cloudy
9:15 AM 33.8 °F 28.6 °F 26.6 °F 75% 29.87 in 10.0 mi WSW 5.8 mph - N/A   Scattered Clouds
9:35 AM 33.8 °F 27.0 °F 26.6 °F 75% 29.87 in 10.0 mi West 8.1 mph - N/A   Clear
9:55 AM 35.6 °F 27.5 °F 28.4 °F 75% 29.88 in 10.0 mi West 11.5 mph - N/A   Mostly Cloudy
10:15 AM 35.6 °F 27.5 °F 28.4 °F 75% 29.88 in 10.0 mi West 11.5 mph - N/A   Overcast
10:35 AM 37.4 °F 31.4 °F 28.4 °F 70% 29.88 in 10.0 mi WSW 8.1 mph 17.3 mph N/A   Overcast
10:55 AM 39.2 °F 33.0 °F 28.4 °F 65% 29.89 in 10.0 mi West 9.2 mph 19.6 mph N/A   Mostly Cloudy
11:15 AM 39.2 °F 31.6 °F 28.4 °F 65% 29.88 in 10.0 mi WSW 12.7 mph 20.7 mph N/A   Mostly Cloudy
11:35 AM 37.4 °F 28.9 °F 28.4 °F 70% 29.88 in 10.0 mi West 13.8 mph 20.7 mph N/A   Overcast
11:55 AM 37.4 °F 29.3 °F 28.4 °F 70% 29.88 in 10.0 mi West 12.7 mph 20.7 mph N/A   Overcast
12:15 PM 37.4 °F 30.3 °F 28.4 °F 70% 29.88 in 10.0 mi WNW 10.4 mph 21.9 mph N/A   Overcast
12:35 PM 37.4 °F 31.4 °F 28.4 °F 70% 29.87 in 10.0 mi West 8.1 mph 17.3 mph N/A   Overcast
12:55 PM 37.4 °F 29.3 °F 28.4 °F 70% 29.87 in 10.0 mi West 12.7 mph 20.7 mph N/A   Overcast
1:15 PM 39.2 °F 32.0 °F 28.4 °F 65% 29.87 in 10.0 mi West 11.5 mph 24.2 mph N/A   Overcast
1:35 PM 41.0 °F 36.4 °F 28.4 °F 61% 29.87 in 10.0 mi West 6.9 mph 18.4 mph N/A   Overcast
1:55 PM 37.4 °F 30.3 °F 28.4 °F 70% 29.87 in 10.0 mi WNW 10.4 mph 16.1 mph N/A   Overcast
2:15 PM 37.4 °F 32.1 °F 28.4 °F 70% 29.88 in 10.0 mi West 6.9 mph 16.1 mph N/A   Overcast
2:35 PM 37.4 °F 30.3 °F 28.4 °F 70% 29.88 in 10.0 mi West 10.4 mph 17.3 mph N/A   Overcast
2:55 PM 39.2 °F 32.5 °F 26.6 °F 61% 29.88 in 10.0 mi West 10.4 mph 20.7 mph N/A   Mostly Cloudy
3:15 PM 39.2 °F 32.0 °F 26.6 °F 61% 29.88 in 10.0 mi West 11.5 mph 19.6 mph N/A   Mostly Cloudy
3:35 PM 39.2 °F 32.5 °F 26.6 °F 61% 29.88 in 10.0 mi West 10.4 mph 21.9 mph N/A   Scattered Clouds
3:55 PM 39.2 °F 33.0 °F 26.6 °F 61% 29.89 in 10.0 mi WSW 9.2 mph 17.3 mph N/A   Scattered Clouds
4:15 PM 39.2 °F 33.6 °F 26.6 °F 61% 29.89 in 10.0 mi WSW 8.1 mph 18.4 mph N/A   Scattered Clouds
4:35 PM 37.4 °F 30.8 °F 26.6 °F 65% 29.90 in 10.0 mi WSW 9.2 mph 19.6 mph N/A   Clear
4:55 PM 37.4 °F 32.1 °F 26.6 °F 65% 29.90 in 10.0 mi WSW 6.9 mph 16.1 mph N/A   Clear
5:15 PM 37.4 °F 32.1 °F 26.6 °F 65% 29.90 in 10.0 mi SW 6.9 mph - N/A   Clear
5:35 PM 35.6 °F 30.7 °F 26.6 °F 70% 29.89 in 10.0 mi SSW 5.8 mph - N/A   Clear
5:55 PM 35.6 °F 31.7 °F 26.6 °F 70% 29.90 in 10.0 mi SW 4.6 mph - N/A   Clear
6:15 PM 35.6 °F 29.9 °F 26.6 °F 70% 29.90 in 10.0 mi SW 6.9 mph - N/A   Clear
6:35 PM 35.6 °F 28.6 °F 26.6 °F 70% 29.90 in 10.0 mi SW 9.2 mph - N/A   Clear
6:55 PM 35.6 °F 29.9 °F 26.6 °F 70% 29.90 in 10.0 mi WSW 6.9 mph - N/A   Clear
7:15 PM 33.8 °F 27.7 °F 26.6 °F 75% 29.90 in 10.0 mi WSW 6.9 mph - N/A   Clear
7:55 PM 33.8 °F 27.0 °F 26.6 °F 75% 29.90 in 10.0 mi WSW 8.1 mph - N/A   Clear
8:15 PM 33.8 °F 27.7 °F 26.6 °F 75% 29.90 in 10.0 mi West 6.9 mph - N/A   Clear
8:35 PM 33.8 °F 28.6 °F 26.6 °F 75% 29.89 in 10.0 mi West 5.8 mph - N/A   Clear
8:55 PM 33.8 °F 28.6 °F 26.6 °F 75% 29.89 in 10.0 mi West 5.8 mph - N/A   Clear
9:15 PM 32.0 °F 27.5 °F 26.6 °F 80% 29.89 in 10.0 mi West 4.6 mph - N/A   Clear
9:35 PM 30.2 °F 25.4 °F 26.6 °F 86% 29.88 in 10.0 mi WSW 4.6 mph - N/A   Clear
9:55 PM 33.8 °F 27.7 °F 26.6 °F 75% 29.88 in 10.0 mi WSW 6.9 mph - N/A   Clear
10:15 PM 33.8 °F 27.0 °F 26.6 °F 75% 29.88 in 10.0 mi WSW 8.1 mph - N/A   Clear
10:35 PM 33.8 °F 28.6 °F 26.6 °F 75% 29.88 in 10.0 mi WSW 5.8 mph - N/A   Clear
10:55 PM 33.8 °F 27.7 °F 26.6 °F 75% 29.88 in 10.0 mi WSW 6.9 mph - N/A   Clear
11:15 PM 33.8 °F 27.0 °F 26.6 °F 75% 29.87 in 10.0 mi WSW 8.1 mph - N/A   Clear
11:35 PM 33.8 °F 30.8 °F 26.6 °F 75% 29.86 in 10.0 mi SW 3.5 mph - N/A   Clear
11:55 PM 33.8 °F 29.6 °F 26.6 °F 75% 29.85 in 10.0 mi West 4.6 mph - N/A   Clear